Weather in Cabimas

Venezuela     10°26′04″N   71°23′35″W
temp.,
°C
wind,
m/s
gust,
m/s
humid.,
%
clouds,
%
prec.,
mm/h
press.,
hPa
HPBL,
m
13 june, sun
sun1323:00+28nne4474100 0.0 1009291
02:00+27e1277100 0.0 1008180
05:00+27se2383100 0.3 1009199
08:00+27sse1280100 0.7 1010355
11:00+29s337174 0.3 1011596
14:00+32s3356100 0.3 1009833
17:00+31n565864 0.0 1008677
20:00+29n7971100 0.0 1009673
14 june, mon
mon1423:00+27n558294 0.0 1010313
02:00+27se2382100 0.0 1010242
05:00+26se238725 0.3 1010188
08:00+27ese338412 1.3 1012230
11:00+29sse447197 1.2 1013620
14:00+31s445874 1.2 1010886
17:00+30n446281 0.0 1009556
20:00+29nne6106918 0.0 1011598
15 june, tue
tue1523:00+28nne457630 0.0 1012272
02:00+26ene33785 0.0 1010192
05:00+25e338750 1.2 1011126
08:00+26se578211 3.1 1013354
11:00+30sse556784 1.5 1013841
14:00+30ssw326599 3.5 1011654
17:00+30nne666599 0.6 1010651
20:00+28n7117580 0.6 1011557
16 june, wed
wed1623:00+27nne677662 0.0 1011320
02:00+26ne347653 0.0 1010219
05:00+26ne227716 0.0 1011159
08:00+26ese227787 0.0 1012242
11:00+29s336913 0.1 1013745
14:00+30ssw4365100 0.5 1010680
17:00+31nne6663100 0.4 1009883
20:00+28n787599 0.4 1010467
17 june, thu
thu1723:00+27ene227634 0.0 1011202
02:00+26ese34845 0.0 1010196
05:00+26ese3484100 0.4 1010230
08:00+27ese3479100 1.6 1012273
11:00+29sse337294 1.6 1012485
14:00+31s2359100 1.6 1010838
17:00+30n3462100 0.0 1008640
20:00+29nne7969100 0.0 1009487